Time,TemperatureF,DewpointF,PressureIn,WindDirection,WindDirectionDegrees,WindSpeedMPH,WindSpeedGustMPH,Humidity,HourlyPrecipIn,Conditions,Clouds,dailyrainin,SoftwareType,DateUTC
2015-08-30 00:09:00,58.6,48.0,29.88,SW,223,0.0,0.0,67,0.00,,,0.01,weatherlink.com 1.10,2015-08-30 07:09:00,
2015-08-30 00:24:00,58.3,47.0,29.88,SW,224,0.0,0.0,67,0.00,,,0.01,weatherlink.com 1.10,2015-08-30 07:24:00,
2015-08-30 00:39:00,57.9,47.0,29.88,SW,224,0.0,0.0,68,0.00,,,0.01,weatherlink.com 1.10,2015-08-30 07:39:00,
2015-08-30 00:54:00,57.6,47.0,29.88,SW,223,0.0,0.0,69,0.00,,,0.01,weatherlink.com 1.10,2015-08-30 07:54:00,
2015-08-30 01:09:00,57.3,47.0,29.88,SW,224,0.0,0.0,68,0.00,,,0.01,weatherlink.com 1.10,2015-08-30 08:09:00,
2015-08-30 01:24:00,56.9,47.0,29.88,SW,224,0.0,0.0,69,0.00,,,0.01,weatherlink.com 1.10,2015-08-30 08:24:00,
2015-08-30 01:39:00,56.7,47.0,29.87,SW,224,0.0,0.0,70,0.00,,,0.01,weatherlink.com 1.10,2015-08-30 08:39:00,
2015-08-30 01:54:00,56.6,47.0,29.87,SW,224,0.0,0.0,70,0.00,,,0.00,weatherlink.com 1.10,2015-08-30 08:54:00,
2015-08-30 02:09:00,56.7,47.0,29.87,SW,224,0.0,0.0,70,0.00,,,0.00,weatherlink.com 1.10,2015-08-30 09:09:00,
2015-08-30 02:24:00,56.5,47.0,29.88,SW,224,0.0,0.0,70,0.00,,,0.00,weatherlink.com 1.10,2015-08-30 09:24:00,
2015-08-30 02:39:00,56.3,47.0,29.88,SW,224,0.0,0.0,70,0.00,,,0.00,weatherlink.com 1.10,2015-08-30 09:39:00,
2015-08-30 02:54:00,56.1,46.0,29.88,SW,224,0.0,0.0,70,0.00,,,0.00,weatherlink.com 1.10,2015-08-30 09:54:00,
2015-08-30 03:09:00,55.9,47.0,29.87,SW,224,0.0,0.0,71,0.00,,,0.00,weatherlink.com 1.10,2015-08-30 10:09:00,
2015-08-30 03:24:00,55.7,46.0,29.87,SW,224,0.0,0.0,71,0.00,,,0.00,weatherlink.com 1.10,2015-08-30 10:24:00,
2015-08-30 03:40:00,55.7,47.0,29.87,SW,223,0.0,0.0,72,0.00,,,0.00,weatherlink.com 1.10,2015-08-30 10:40:00,
2015-08-30 03:54:00,55.9,47.0,29.88,SW,223,0.0,0.0,73,0.00,,,0.00,weatherlink.com 1.10,2015-08-30 10:54:00,
2015-08-30 04:09:00,56.3,48.0,29.88,SW,223,0.0,0.0,74,0.00,,,0.00,weatherlink.com 1.10,2015-08-30 11:09:00,
2015-08-30 04:24:00,56.5,49.0,29.88,SW,223,0.0,0.0,75,0.00,,,0.00,weatherlink.com 1.10,2015-08-30 11:24:00,
2015-08-30 04:39:00,56.5,49.0,29.89,SW,224,0.0,0.0,75,0.00,,,0.00,weatherlink.com 1.10,2015-08-30 11:39:00,
2015-08-30 04:54:00,56.4,49.0,29.89,SW,224,0.0,0.0,75,0.00,,,0.00,weatherlink.com 1.10,2015-08-30 11:54:00,
2015-08-30 05:09:00,56.2,49.0,29.88,SW,224,0.0,0.0,76,0.00,,,0.00,weatherlink.com 1.10,2015-08-30 12:09:00,
2015-08-30 05:24:00,55.8,48.0,29.89,SW,224,0.0,0.0,76,0.00,,,0.00,weatherlink.com 1.10,2015-08-30 12:24:00,
2015-08-30 05:39:00,55.6,48.0,29.89,SW,224,0.0,0.0,76,0.00,,,0.00,weatherlink.com 1.10,2015-08-30 12:39:00,
2015-08-30 05:55:00,55.5,47.0,29.90,SW,224,0.0,0.0,74,0.00,,,0.00,weatherlink.com 1.10,2015-08-30 12:55:00,
2015-08-30 06:10:00,55.4,47.0,29.90,SW,224,0.0,0.0,73,0.00,,,0.00,weatherlink.com 1.10,2015-08-30 13:10:00,
2015-08-30 06:25:00,55.5,47.0,29.91,SW,224,0.0,0.0,73,0.00,,,0.00,weatherlink.com 1.10,2015-08-30 13:25:00,
2015-08-30 06:40:00,55.7,47.0,29.91,SW,224,0.0,0.0,73,0.00,,,0.00,weatherlink.com 1.10,2015-08-30 13:40:00,
2015-08-30 06:55:00,55.9,47.0,29.92,SW,224,0.0,0.0,73,0.00,,,0.00,weatherlink.com 1.10,2015-08-30 13:55:00,
2015-08-30 07:10:00,56.0,48.0,29.93,SW,224,0.0,0.0,74,0.00,,,0.00,weatherlink.com 1.10,2015-08-30 14:10:00,
2015-08-30 07:25:00,56.0,47.0,29.93,SW,224,0.0,0.0,71,0.00,,,0.00,weatherlink.com 1.10,2015-08-30 14:25:00,
2015-08-30 07:40:00,56.2,44.0,29.93,SW,224,0.0,0.0,65,0.00,,,0.00,weatherlink.com 1.10,2015-08-30 14:40:00,
2015-08-30 07:55:00,57.1,46.0,29.93,SW,224,0.0,0.0,67,0.00,,,0.00,weatherlink.com 1.10,2015-08-30 14:55:00,
2015-08-30 08:10:00,59.0,48.0,29.94,SW,224,0.0,1.0,67,0.00,,,0.00,weatherlink.com 1.10,2015-08-30 15:10:00,
2015-08-30 08:25:00,61.4,50.0,29.94,SW,224,0.0,0.0,66,0.00,,,0.00,weatherlink.com 1.10,2015-08-30 15:25:00,
2015-08-30 08:40:00,62.4,49.0,29.94,SW,224,0.0,0.0,61,0.00,,,0.00,weatherlink.com 1.10,2015-08-30 15:40:00,
2015-08-30 08:55:00,63.3,48.0,29.95,SW,223,0.0,1.0,58,0.00,,,0.00,weatherlink.com 1.10,2015-08-30 15:55:00,
2015-08-30 09:10:00,64.5,48.0,29.95,SW,226,0.0,1.0,55,0.00,,,0.00,weatherlink.com 1.10,2015-08-30 16:10:00,
2015-08-30 09:25:00,64.8,46.0,29.95,SW,226,0.0,1.0,50,0.00,,,0.00,weatherlink.com 1.10,2015-08-30 16:25:00,
2015-08-30 09:40:00,65.9,45.0,29.95,SSW,209,0.0,1.0,47,0.00,,,0.00,weatherlink.com 1.10,2015-08-30 16:40:00,
2015-08-30 09:55:00,66.6,44.0,29.95,SSW,208,0.0,0.0,45,0.00,,,0.00,weatherlink.com 1.10,2015-08-30 16:55:00,
2015-08-30 10:10:00,67.3,42.0,29.96,SW,236,0.0,1.0,40,0.00,,,0.00,weatherlink.com 1.10,2015-08-30 17:10:00,
2015-08-30 10:25:00,68.3,43.0,29.96,SW,236,0.0,1.0,40,0.00,,,0.00,weatherlink.com 1.10,2015-08-30 17:25:00,
2015-08-30 10:40:00,69.2,41.0,29.96,WSW,238,0.0,0.0,36,0.00,,,0.00,weatherlink.com 1.10,2015-08-30 17:40:00,
2015-08-30 10:55:00,70.2,43.0,29.96,SW,215,0.0,1.0,37,0.00,,,0.00,weatherlink.com 1.10,2015-08-30 17:55:00,
2015-08-30 11:10:00,70.7,42.0,29.96,SSW,194,0.0,1.0,35,0.00,,,0.00,weatherlink.com 1.10,2015-08-30 18:10:00,
2015-08-30 11:26:00,71.8,40.0,29.96,WSW,252,0.0,3.0,32,0.00,,,0.00,weatherlink.com 1.10,2015-08-30 18:26:00,
2015-08-30 11:41:00,71.9,40.0,29.95,SW,227,0.0,3.0,31,0.00,,,0.00,weatherlink.com 1.10,2015-08-30 18:41:00,
2015-08-30 11:56:00,72.6,42.0,29.95,SSW,211,0.0,1.0,33,0.00,,,0.00,weatherlink.com 1.10,2015-08-30 18:56:00,